Torna al catalogo

SS 1

AttivoMilitareLEO
NORAD 10529·PAYLOAD·🇺🇸 United States

Lanciato Dec 8, 1977 da Vandenberg Space Force Base

Loading…

Prossimi Passaggi (prossime 24 ore)

TLE

AggiornatoSource: Space-Track

Epoca: Sep 13, 2026, 23:33 UTC

1 10529U 77112D   26256.98181873  .00000351  00000-0  13688-3 0  9999
2 10529  63.3386 108.5664 0505032 163.8353 197.9500 13.90460534364540

Traccia SS 1 in tempo reale con AllMySat

Download on the App Store